Weather History for KEMP - October, 2012

Change the Weather History Date:

Tuesday, October 9, 2012

  Actual Average Record
Temperature  
Mean Temperature 54 °F 59 °F  
Max Temperature 67 °F 71 °F 84 °F (2007)
Min Temperature 40 °F 48 °F 23 °F (2000)
Degree Days  
Heating Degree Days 11 7  
Month to date heating degree days 108 53  
Since 1 July heating degree days 148 103  
Cooling Degree Days 0 1  
Month to date cooling degree days 2 17  
Year to date cooling degree days 1867 1390  
Growing Degree Days 4 (Base 50)    
Moisture  
Dew Point 40 °F    
Average Humidity 64    
Maximum Humidity 76    
Minimum Humidity 51    
Precipitation  
Precipitation 0.00 in 0.10 in 1.29 in (2014)
Month to date precipitation T 0.78  
Year to date precipitation 18.62 30.78  
Sea Level Pressure  
Sea Level Pressure 29.97 in    
Wind  
Wind Speed 10 mph (WSW)    
Max Wind Speed 21 mph    
Max Gust Speed 25 mph    
Visibility 10 miles    
Events      
T = Trace of Precipitation, MM = Missing Value Source: NWS Daily Summary

Daily Weather History Graph

Daily Weather History Graph

Search for Another Location

Airport or City:

Trip Planner

Search our weather history database for the weather conditions in past years. The results will help you decide how hot, cold, wet, or windy it might be!

Date:

Astronomy

Oct. 09, 2012 Rise Set
Actual Time 7:28 AM CDT 6:54 PM CDT
Civil Twilight 7:01 AM CDT 7:21 PM CDT
Nautical Twilight 6:31 AM CDT 7:51 PM CDT
Astronomical Twilight 6:00 AM CDT 8:22 PM CDT
Moon 1:10 AM CDT (10/9) 3:18 PM CDT (10/9)
Length of Visible Light 12h 19m
Length of Day
11h 26m
Last Quarter, 36% of the Moon is Illuminated
Oct 9
Last Quarter
Oct 15
New
Oct 21
First Quarter
Oct 29
Full
Nov 6
Last Quarter

Hourly Weather History & Observations

Time (CDT) Temp. Windchill Dew Point Humidity Pressure Visibility Wind Dir Wind Speed Gust Speed Precip Events Conditions
12:53 AM 46.0 °F 39.6 °F 36.0 °F 68% 29.96 in 10.0 mi South 15.0 mph - N/A   Clear
1:53 AM 46.0 °F 39.9 °F 36.0 °F 68% 29.95 in 10.0 mi South 13.8 mph - N/A   Clear
3:53 AM 44.1 °F 37.4 °F 35.1 °F 71% 29.92 in 10.0 mi South 13.8 mph - N/A   Clear
4:53 AM 43.0 °F 36.0 °F 35.1 °F 74% 29.91 in 10.0 mi South 13.8 mph - N/A   Clear
5:53 AM 44.1 °F 38.1 °F 36.0 °F 73% 29.91 in 10.0 mi South 11.5 mph - N/A   Clear
6:53 AM 44.1 °F 37.4 °F 36.0 °F 73% 29.92 in 10.0 mi South 13.8 mph - N/A   Clear
7:53 AM 43.0 °F 35.7 °F 36.0 °F 76% 29.91 in 10.0 mi South 15.0 mph - N/A   Clear
8:53 AM 46.9 °F - 39.0 °F 74% 29.91 in 10.0 mi South 13.8 mph - N/A   Clear
9:53 AM 53.1 °F - 42.1 °F 66% 29.92 in 10.0 mi South 17.3 mph - N/A   Clear
10:53 AM 59.0 °F - 45.0 °F 60% 29.92 in 10.0 mi SSW 10.4 mph - N/A   Clear
11:53 AM 63.0 °F - 46.9 °F 56% 29.91 in 10.0 mi South 10.4 mph - N/A   Clear
12:53 PM 66.0 °F - 48.9 °F 54% 29.91 in 10.0 mi WSW 6.9 mph - N/A   Mostly Cloudy
1:53 PM 64.0 °F - 48.9 °F 58% 29.91 in 10.0 mi West 6.9 mph - N/A   Overcast
2:53 PM 63.0 °F - 46.9 °F 56% 29.90 in 10.0 mi NNW 8.1 mph - N/A   Overcast
3:53 PM 63.0 °F - 46.0 °F 54% 29.92 in 10.0 mi NNW 8.1 mph - N/A   Overcast
4:53 PM 61.0 °F - 42.1 °F 50% 29.96 in 10.0 mi North 11.5 mph 18.4 mph N/A   Overcast
5:53 PM 59.0 °F - 41.0 °F 51% 29.99 in 10.0 mi North 12.7 mph 20.7 mph N/A   Overcast
6:53 PM 57.0 °F - 42.1 °F 57% 30.03 in 10.0 mi North 15.0 mph - N/A   Overcast
7:53 PM 54.0 °F - 42.1 °F 64% 30.06 in 10.0 mi North 6.9 mph - N/A   Mostly Cloudy
8:53 PM 50.0 °F - 39.0 °F 66% 30.10 in 10.0 mi North 6.9 mph - N/A   Clear
9:53 PM 48.0 °F - 36.0 °F 63% 30.14 in 10.0 mi North 5.8 mph - N/A   Clear
10:53 PM 44.1 °F 41.5 °F 32.0 °F 63% 30.17 in 10.0 mi NNW 4.6 mph - N/A   Clear
11:53 PM 43.0 °F 41.3 °F 30.9 °F 62% 30.17 in 10.0 mi WNW 3.5 mph - N/A   Clear